Tracking 19250 objects as of 23-Sep-2018
HD Live streaming from Space Station
objects crossing your sky now

FENGYUN 1C DEB

Track FENGYUN 1C DEB now!
10-day predictions


NORAD ID: 37578
Int'l Code: 1999-025EKB
Perigee: 724.6 km
Apogee: 830.4 km
Inclination: 98.7 °
Period: 100.2 minutes
Semi major axis: 7148 km
RCS: 0.0008 m2 (small)
Launch date: May 10, 1999
Source: People's Republic of China (PRC)
Launch site: Taiyaun Space Center, China (TSC)

Note: This is SATELLITE DEBRIS
aabbcc
Your satellite tracking list
Your tracking list is empty




NASA's NSSDC Master Catalog

Two Line Element Set (TLE):
1 37578U 99025EKB 18264.99817108 +.00001127 +00000-0 +38802-3 0  9994
2 37578 098.7490 336.0741 0073944 123.7364 237.0897 14.36414711508456
Source of the keplerian elements: AFSPC